GFSMA_con_lsi_276.txt.gz
Lid_Strength_Index
-0 -0 0 -0 -0 -0 -0 -0 -0 -0 -0 -0 -1 -0 -0 -1 -1 -1 -1 2 0 -1 -2 -2 -2 -2 -2 -2 -2 -2 -2 -2 -1 -1 -1 -1 -1 -1 -1 -1 -1 -1 -1
1 -0 -0 0 -0 -1 -0 0 0 0 0 -0 -0 -0 -0 -0 -1 -1 -1 -1 1 -1 -2 -2 -2 -2 -2 -2 -2 -2 -2 -2 -2 -2 -2 -2 -1 -1 -1 -1 -1 -1 -1
3 -0 -0 0 0 -1 1 1 0 0 0 -0 0 -0 -0 -1 -1 -1 -1 -1 -1 1 -1 -1 -2 -2 -2 -2 -2 -2 -2 -1 -1 -1 -1 -1 -1 -1 -1 -1 -1 -1 -0
3 1 -0 0 -0 -0 -0 1 1 1 1 1 1 0 0 -0 -0 -1 -1 -1 -1 -1 -0 -1 -1 -2 -1 -1 -1 -2 -2 -2 -1 -0 -0 0 0 0 1 1 1 1 1
2 2 -0 -0 -0 0 0 1 1 1 2 2 2 1 1 1 1 1 0 2 1 1 1 3 2 0 -1 -1 -1 -2 -1 0 0 1 1 1 2 2 2 2 2 1 2
2 2 -1 -0 -0 0 0 1 1 1 2 2 3 6 8 8 8 7 7 7 7 8 8 7 5 4 1 -1 -0 0 1 2 3 4 4 4 4 4 4 5 5 4 4
1 -0 0 -0 0 1 1 1 1 2 2 1 6 8 10 11 11 10 10 11 11 12 12 12 12 11 8 4 3 3 3 3 4 5 5 5 5 6 6 6 5 5 5
-0 -0 0 -0 0 1 1 1 1 2 2 2 4 6 9 10 12 13 12 13 15 14 15 15 15 14 14 11 9 7 6 6 6 6 6 7 7 7 7 7 7 7 6
2 1 0 -0 0 1 1 1 1 2 3 2 2 4 8 8 13 13 15 15 15 16 17 17 17 17 17 16 14 12 10 10 9 9 9 9 9 9 9 9 9 8 8
4 5 3 1 0 0 1 1 1 1 2 3 2 3 5 9 12 15 15 17 16 17 17 17 17 17 17 17 16 14 13 13 12 12 12 12 11 11 10 10 10 9 9
6 7 7 6 0 1 2 1 1 1 1 2 3 5 6 8 10 12 16 18 18 18 18 18 18 18 18 18 18 17 15 14 14 14 14 13 13 12 11 11 10 10 9
8 9 10 9 10 10 10 11 11 11 11 12 12 11 7 8 9 12 15 16 19 20 19 19 19 19 19 19 19 19 17 16 15 15 15 15 14 13 12 12 11 11 10
11 12 12 13 13 13 12 13 14 15 15 16 16 16 16 15 11 10 13 16 17 20 20 20 20 20 19 20 20 21 20 18 17 16 16 16 15 14 14 13 12 11 11
12 14 15 15 15 15 14 16 16 17 17 18 18 19 19 18 16 14 11 14 17 17 18 22 21 20 20 20 21 21 22 20 19 18 17 17 16 15 14 13 13 12 12
14 15 16 17 18 17 17 17 18 19 18 19 20 19 20 19 19 18 17 15 14 17 20 20 22 21 21 21 21 22 22 21 20 19 18 17 16 15 14 14 13 12 11
15 16 17 17 18 18 19 19 19 20 20 20 20 20 20 20 20 20 19 19 18 16 20 20 22 21 21 21 21 21 22 21 21 20 19 17 15 14 13 13 12 12 11
15 17 17 17 19 19 18 20 20 20 21 21 21 21 21 20 21 21 21 20 21 18 21 21 21 21 21 22 22 21 21 20 19 18 17 15 14 14 14 13 13 12 12
16 17 17 18 18 20 20 21 21 20 21 22 22 22 22 21 22 21 21 22 22 21 20 22 21 21 20 20 20 20 20 19 19 18 17 16 15 15 15 14 14 14 13
18 18 17 19 20 21 21 21 20 21 21 21 21 22 22 22 23 22 22 22 22 22 21 19 20 19 19 19 20 19 20 19 19 18 17 17 16 16 15 15 15 14 14
19 20 19 20 20 21 21 21 20 21 21 21 21 21 21 22 22 22 22 21 20 20 20 20 20 20 20 20 20 21 22 20 20 19 18 18 18 17 16 16 15 15 15
18 19 20 20 20 20 20 21 21 21 22 22 21 20 20 20 20 20 19 20 19 20 20 20 21 21 21 22 23 22 22 21 20 19 20 19 19 19 19 18 17 16 16
19 19 19 19 20 19 19 19 20 21 21 21 22 21 21 20 18 18 18 18 18 20 20 21 21 22 22 22 22 22 22 22 23 18 20 21 20 20 19 19 17 16 15
19 19 19 19 20 19 19 20 20 21 21 21 21 19 19 19 19 20 19 20 20 19 20 20 22 22 23 22 22 22 22 22 22 21 22 23 20 21 19 18 16 16 15
19 19 19 19 20 20 19 20 20 21 21 20 19 19 19 18 18 19 19 20 21 21 21 21 21 21 20 20 20 21 21 22 22 22 21 24 20 21 19 18 17 15 13
20 20 19 19 19 18 18 18 19 20 20 21 21 20 19 18 17 17 19 21 21 21 20 19 18 18 19 19 20 21 23 24 25 23 21 22 21 21 20 19 17 15 14
18 18 18 18 17 17 16 17 18 19 20 20 21 21 20 19 18 18 19 21 23 21 21 22 22 23 22 23 22 23 23 25 25 24 19 22 22 21 23 17 17 17 18

GFSMA_con_lsi_279.txt.gz
Lid_Strength_Index
0 -0 0 -0 0 0 1 1 1 0 0 0 -0 -0 -0 -0 -1 -1 -1 2 0 -1 -2 -2 -2 -2 -1 -1 -1 -2 -2 -2 -2 -2 -1 -1 -1 -1 -1 -1 -1 -1 -1
3 0 -0 0 0 0 -0 1 2 1 1 0 0 -0 -0 -0 -1 -1 -1 0 1 -0 -1 -2 -2 -2 -2 -2 -2 -2 -1 -2 -2 -2 -2 -2 -2 -1 -1 -1 -1 -1 -1
4 3 -0 0 0 -0 -0 0 1 1 1 0 0 0 -0 -0 -0 -0 -1 -1 -0 1 -0 -1 -1 -2 -2 -2 -2 -2 -2 -1 -2 -2 -2 -2 -2 -2 -1 -1 -1 -1 -0
3 3 1 0 -0 -0 0 0 1 1 1 1 1 1 0 -0 -0 -0 -1 -1 -1 -1 -0 -0 -1 -2 -2 -2 -2 -2 -2 -2 -2 -1 -1 -1 -0 -0 0 0 0 1 1
3 4 2 -0 -0 0 0 1 1 1 1 2 2 2 5 5 5 4 4 4 3 3 3 3 2 1 -1 -1 -1 -1 -2 -2 -1 0 1 1 1 2 2 2 2 2 2
4 3 3 1 -0 0 1 1 1 1 1 1 4 8 9 8 8 8 8 9 9 10 10 10 8 5 0 -1 -1 -1 0 0 1 2 3 3 3 4 4 4 4 4 5
3 3 3 2 -0 1 1 1 1 2 2 5 8 10 11 11 11 11 11 11 11 12 13 13 13 11 9 3 2 2 2 2 3 3 4 4 5 6 6 6 6 6 6
2 2 1 2 1 1 1 1 1 2 2 4 5 7 10 11 13 13 13 13 14 13 14 15 15 15 14 11 8 6 5 5 5 5 6 7 7 8 7 7 7 7 7
1 1 2 1 1 0 1 1 1 2 3 2 3 4 8 8 14 14 15 15 15 16 16 16 16 16 16 16 14 12 10 9 8 8 9 9 9 9 9 9 9 9 8
3 4 4 4 2 0 1 1 1 1 2 3 2 2 3 8 11 15 16 17 17 17 17 17 17 17 17 17 16 14 13 12 12 12 11 12 11 10 10 10 9 9 9
5 6 6 7 5 3 1 1 1 1 1 2 3 3 6 6 8 12 16 17 18 18 18 18 18 18 18 19 18 16 14 14 14 14 14 13 13 12 11 11 10 10 9
7 8 8 9 9 9 9 9 8 6 6 4 4 5 6 8 9 11 14 16 18 19 19 19 19 19 19 19 19 18 16 16 15 15 15 15 14 13 12 12 11 10 10
10 11 10 11 12 11 12 12 12 13 13 13 12 13 13 13 10 11 13 17 18 19 20 20 19 19 19 20 20 21 19 17 17 17 16 16 15 14 13 13 12 11 11
12 12 12 13 12 13 13 14 15 15 15 15 16 16 17 17 16 14 13 15 18 18 19 21 20 20 20 20 21 21 21 20 19 18 17 16 15 15 14 13 12 12 12
13 13 14 15 15 15 15 17 17 17 17 17 19 18 19 19 17 17 14 14 14 18 20 21 22 20 20 20 21 22 21 21 20 19 18 17 16 15 14 14 13 12 11
14 15 16 16 16 17 17 17 19 19 20 19 19 19 20 19 18 19 18 17 15 15 20 19 21 21 20 21 21 22 22 21 20 19 19 18 16 15 13 12 11 11 10
15 16 16 16 17 17 17 18 19 19 20 20 20 20 20 20 20 20 19 19 18 17 20 21 21 20 21 22 22 22 21 22 22 20 17 15 14 14 13 13 12 12 12
16 16 17 17 17 17 18 18 19 20 20 21 21 21 21 20 21 20 19 20 20 19 20 22 21 22 21 21 22 22 22 20 19 18 16 15 15 14 14 14 13 13 13
17 17 17 17 18 19 18 19 19 20 20 21 21 21 21 20 21 20 20 20 20 20 19 21 23 22 22 21 21 20 19 19 19 17 16 16 16 15 15 15 14 14 14
18 18 18 18 18 18 18 19 19 20 20 20 20 20 20 21 20 21 22 21 21 22 21 22 22 21 21 20 20 21 22 20 20 19 18 17 17 16 16 15 15 15 15
16 17 17 17 17 18 19 20 20 21 21 21 20 20 20 19 18 19 21 22 22 22 21 20 21 21 21 21 22 22 22 21 21 20 20 20 20 20 20 18 17 16 15
18 18 18 17 18 18 17 18 19 20 20 20 21 21 21 21 20 20 20 19 18 20 20 20 21 22 21 22 21 22 22 23 23 19 21 22 20 21 20 20 17 16 15
18 19 19 19 20 19 18 18 19 20 21 21 21 21 21 20 20 20 18 18 19 18 19 20 21 21 22 21 21 22 22 22 23 21 22 24 21 22 20 19 16 15 15
19 19 19 19 20 19 19 19 20 21 22 21 21 19 18 18 17 18 19 19 20 20 20 20 20 20 20 20 20 21 22 22 22 21 21 25 21 22 20 19 16 15 14
19 19 19 19 19 19 19 19 19 20 20 20 19 19 18 18 17 17 19 20 20 20 19 19 19 18 18 18 19 21 24 25 26 24 22 23 22 22 21 20 19 15 15
17 17 17 17 17 17 16 16 17 18 19 20 20 20 19 18 17 17 19 20 22 21 20 21 21 22 22 22 21 22 24 27 26 26 21 24 23 22 25 21 20 19 19

GFSMA_con_lsi_285.txt.gz
Lid_Strength_Index
4 2 0 0 0 0 0 1 0 1 1 1 0 1 1 1 1 1 -0 3 0 -1 -2 -2 -2 -2 -2 -2 -2 -2 -1 -1 -1 -0 -0 -1 -1 -1 -1 -1 -1 -1 -1
4 3 2 0 1 0 3 2 2 2 2 1 1 1 1 1 2 1 1 1 1 -0 -1 -2 -2 -2 -2 -2 -2 -2 -2 -1 -1 -0 0 -0 -0 -0 -0 -1 -1 -1 -1
3 3 3 1 0 1 3 2 2 2 1 1 2 1 1 2 2 1 1 2 2 2 0 -1 -2 -2 -2 -2 -2 -2 -2 -2 -1 -1 -0 -0 -0 -0 -0 -1 -1 -1 -1
1 2 3 3 0 1 2 3 2 2 2 2 2 2 2 3 3 2 2 1 1 3 3 1 -0 -1 -1 -2 -2 -2 -2 -2 -2 -2 -1 -1 -1 -1 -1 -1 -1 -1 -1
2 2 3 3 1 1 0 2 2 2 2 2 2 3 4 5 5 4 5 5 5 5 6 5 3 2 -1 -1 -2 -2 -2 -2 -2 -2 -1 -2 -1 -1 -1 -1 -0 1 1
2 2 2 2 2 1 1 1 2 2 2 2 6 9 9 10 9 8 8 8 8 8 8 8 7 5 1 -1 -1 -1 -2 -1 -1 -1 -1 -0 0 1 1 2 2 3 4
2 3 3 2 3 2 1 1 1 2 4 6 8 9 11 12 13 13 13 12 12 12 13 13 12 10 5 -0 -1 -1 -1 -2 -1 0 1 1 2 2 3 3 4 4 5
1 2 2 1 1 3 3 1 2 2 4 4 5 7 10 11 13 14 14 14 15 14 15 15 15 15 12 7 2 0 -0 0 0 1 2 3 3 4 4 5 6 6 7
3 3 4 3 2 1 3 2 1 2 4 4 4 5 9 9 14 15 16 16 15 16 16 16 16 16 15 13 11 5 2 2 3 4 5 5 5 6 7 7 8 8 8
6 6 5 6 4 3 2 3 2 2 2 4 4 4 7 10 11 15 16 17 17 17 18 17 18 18 17 16 12 9 8 7 7 7 7 7 7 8 9 9 9 9 9
6 7 7 6 6 7 6 5 5 4 2 2 3 6 7 10 10 12 16 17 18 19 19 19 19 19 19 17 15 12 10 10 10 10 10 10 10 10 10 10 10 10 9
7 8 8 9 8 8 7 8 8 6 6 3 2 4 7 8 11 13 15 16 17 20 19 19 18 18 18 18 16 13 12 12 11 12 12 13 12 12 12 11 11 10 9
9 10 10 10 10 9 10 10 10 11 12 11 10 8 9 10 9 10 13 16 17 19 20 19 18 18 18 19 18 18 15 14 14 14 14 14 14 13 13 13 12 11 11
10 11 11 12 13 12 11 11 14 14 14 14 14 15 14 14 14 12 13 15 20 19 19 21 19 18 19 19 19 19 19 17 16 16 16 16 15 15 14 14 13 12 12
11 12 13 14 14 14 13 14 15 16 16 16 16 15 15 15 15 13 12 13 13 18 20 21 21 19 20 20 20 20 20 20 18 18 17 16 16 15 15 14 13 13 12
12 13 14 14 14 14 14 15 15 14 15 15 15 16 16 16 16 14 14 13 13 14 19 19 20 20 20 19 20 20 20 20 20 19 18 17 16 16 15 14 14 14 13
14 15 15 15 15 16 16 16 15 15 15 15 16 16 17 16 17 17 16 15 14 15 18 21 20 20 21 20 20 21 21 21 21 20 19 17 16 15 15 15 15 14 14
15 15 16 16 16 16 16 16 17 17 16 17 17 18 18 17 18 17 18 18 17 17 19 21 21 21 21 21 21 22 21 21 21 20 18 17 17 16 16 16 15 15 13
16 16 16 16 16 16 17 16 17 17 17 17 18 18 19 18 19 20 19 20 19 18 19 20 22 21 22 22 22 22 22 22 21 20 19 19 19 18 17 16 15 15 15
16 16 16 16 16 16 16 16 17 17 17 17 17 17 18 19 19 20 20 20 20 21 21 22 23 23 23 23 24 24 24 23 23 21 20 20 18 16 16 15 15 15 15
15 15 15 15 15 16 16 17 17 18 18 18 18 17 16 16 16 18 20 20 21 21 22 22 23 24 24 23 24 24 25 24 23 21 21 20 20 21 21 19 18 17 16
16 16 16 15 15 15 14 15 16 18 18 19 20 19 19 19 17 16 16 17 19 21 22 22 23 23 24 24 23 23 22 23 23 20 22 22 21 22 21 21 18 16 15
17 18 17 16 16 15 14 15 16 18 19 19 19 20 20 20 20 21 20 19 19 18 20 21 22 22 22 21 21 21 22 22 23 21 23 25 22 23 22 21 17 16 15
18 19 19 18 18 17 15 16 17 19 19 20 20 19 20 19 20 21 22 22 21 20 20 20 20 20 20 20 21 21 22 24 24 23 23 27 23 23 22 21 18 16 15
19 19 19 19 19 19 16 18 20 20 21 21 20 20 20 19 17 17 19 20 20 20 18 17 18 18 18 18 19 23 29 30 30 26 23 26 25 25 23 23 21 17 15
19 19 19 19 19 19 17 17 19 19 21 21 20 19 16 17 16 16 19 20 22 21 21 22 22 21 21 22 20 22 26 32 32 31 24 28 27 26 29 25 23 23 21

GFSMA_con_lsi_291.txt.gz
Lid_Strength_Index
7 6 5 4 3 4 2 0 0 0 0 0 0 1 1 1 1 1 1 3 1 -1 -2 -1 -1 -2 -2 -2 -2 -1 -2 -1 -1 -1 -1 -1 -1 -0 -0 -0 0 0 1
7 6 5 4 4 3 3 1 0 0 0 0 0 1 1 1 1 1 1 1 2 -0 -1 -1 -1 -2 -2 -2 -2 -2 -2 -2 -1 -1 -1 -1 -1 -0 -0 -0 0 0 0
7 6 5 5 4 3 3 1 0 0 1 0 1 2 2 2 1 1 1 1 2 2 0 -1 -1 -1 -2 -2 -2 -2 -2 -2 -2 -1 -1 -1 -1 -1 -0 -0 -0 -0 -0
6 6 5 5 4 3 2 1 1 1 1 1 2 3 4 4 3 1 1 2 2 2 2 1 -1 -1 -1 -2 -2 -2 -2 -2 -2 -1 -1 -1 -1 -0 -1 -0 -1 -1 -1
7 7 6 5 4 3 2 1 1 2 2 2 3 3 4 3 2 2 2 3 4 4 5 5 4 3 -0 -2 -2 -2 -2 -2 -2 -2 -1 -1 -1 -0 -0 -1 -1 -1 -1
8 8 7 5 4 4 3 1 1 2 4 7 8 10 9 10 10 9 8 7 8 9 9 8 7 6 5 1 -1 -2 -2 -2 -2 -2 -1 -1 -1 -0 -1 -1 -0 -0 -1
8 7 7 6 4 4 4 2 1 2 5 5 7 9 12 13 14 13 12 12 12 12 12 12 12 10 9 5 1 -1 -2 -2 -2 -2 -2 -1 -1 -1 -1 -1 -1 -1 -0
5 5 5 5 5 5 4 3 1 2 4 4 6 8 11 11 13 14 14 13 14 14 14 14 14 14 13 11 7 0 -1 -2 -2 -2 -2 -2 -2 -1 -1 -1 -1 1 1
5 4 5 4 4 3 3 3 1 2 4 4 4 6 10 10 13 15 16 16 16 16 16 15 15 16 15 13 8 4 0 -1 -1 -1 -1 -1 -1 -1 -1 0 1 2 4
5 5 5 5 4 4 4 3 2 3 3 4 3 5 7 9 10 14 15 17 17 17 18 17 17 17 17 15 10 8 5 3 3 2 2 2 2 2 3 4 5 5 6
5 6 7 6 6 6 5 5 5 4 3 4 3 6 7 9 9 10 14 17 18 18 18 18 17 17 17 16 13 10 9 8 7 7 6 6 5 6 6 6 7 7 7
6 6 7 7 7 8 7 7 6 6 5 4 4 4 7 7 9 12 14 16 15 19 19 18 18 18 18 17 14 12 11 10 10 10 10 9 9 8 8 8 8 8 8
8 8 8 8 8 8 8 7 7 7 8 8 6 5 6 8 9 10 12 16 16 19 19 19 19 19 19 18 16 14 12 11 11 10 10 10 10 10 10 10 10 9 10
8 8 8 8 8 8 9 8 8 9 11 11 13 14 12 12 12 11 11 14 17 19 19 19 19 19 18 18 17 16 15 13 12 11 11 11 12 12 12 12 11 11 11
9 9 11 10 10 10 9 10 10 12 11 12 14 15 14 14 13 12 12 11 10 16 18 20 20 19 18 18 18 19 18 15 14 14 13 14 14 14 14 13 13 12 12
11 11 12 12 11 11 11 10 12 13 12 12 12 13 14 14 14 13 13 13 12 12 16 19 20 19 19 19 19 19 18 18 17 16 16 16 16 15 15 14 13 13 13
13 13 13 12 12 12 12 12 13 13 14 14 13 14 15 14 14 14 13 13 13 13 17 20 19 19 19 19 20 20 19 20 19 18 18 17 17 16 15 14 14 14 14
12 13 12 13 13 13 13 14 15 15 15 16 16 15 16 15 16 15 15 14 14 14 16 20 21 20 20 19 20 20 20 19 20 20 18 17 17 15 16 15 15 15 15
13 13 13 13 14 14 14 15 15 15 16 16 17 17 17 16 16 16 16 16 16 16 17 19 21 20 20 21 22 20 21 20 21 20 18 18 17 17 17 16 16 16 16
13 13 14 15 15 15 15 15 15 16 16 16 16 17 17 17 16 17 17 17 17 18 18 19 20 20 21 21 21 22 22 22 22 21 20 19 19 19 18 17 17 17 17
13 13 14 14 14 15 16 17 17 17 17 17 15 15 15 15 15 15 17 17 17 18 18 19 21 22 22 22 22 23 23 23 23 23 23 22 22 23 23 21 20 18 17
14 14 14 15 14 14 14 15 16 17 17 18 18 18 18 16 14 13 14 15 16 18 20 20 21 22 23 23 23 23 24 25 26 23 24 23 23 24 23 22 18 16 15
16 16 15 15 15 15 14 14 15 16 17 17 18 18 18 18 18 17 15 15 15 16 17 20 21 22 23 22 22 23 23 24 25 23 24 25 23 23 22 21 18 16 15
16 17 17 16 15 14 14 14 15 17 17 18 18 18 19 19 19 19 19 20 20 20 20 20 22 22 22 21 22 22 23 25 25 24 23 27 24 24 22 22 18 17 16
18 17 16 17 17 16 14 15 16 17 18 18 18 18 18 19 17 17 20 20 21 20 17 17 17 17 18 18 20 24 28 28 28 25 23 25 25 25 24 23 22 19 17
18 18 18 18 17 17 15 16 17 18 19 19 19 18 16 18 17 17 21 22 23 23 23 24 23 21 20 20 18 22 24 30 29 29 25 27 27 27 28 25 25 24 23